When you browse on this site, cookies collect data to enhance your experience and personalize the content and advertising you see.
Visit our Privacy Policy to learn more. By continuing to use the site, you agree to this use of cookies and data.
  • In Deutschland
  • Länderverzeichnis
  • Für 7 Tage
  • Wassertemperatur
  • Wetterkarte
  • Widgets
  • user-avatar
    Anmelden

    Stündliche Wetter Elbasan

    Heute, 15 Oktober, Dienstag

    Zeit Temperatur Niederschläge Wind Luftdruck Luftfeuchtigkeit
    00:00 +17°C° 0 mm 0 m/S 738 mmHg 78%
    01:00 +17°C° 0 mm 0 m/S 738 mmHg 79%
    02:00 +17°C° 0 mm 0 m/S 738 mmHg 79%
    03:00 +17°C° 0 mm 0 m/S 737 mmHg 79%
    04:00 +16°C° 0 mm 0 m/S 737 mmHg 79%
    05:00 +17°C° 0 mm 0 m/S 737 mmHg 77%
    06:00 +18°C° 0 mm 0 m/S 737 mmHg 74%
    07:00 +21°C° 0 mm 1 m/S 738 mmHg 68%
    08:00 +22°C° 0 mm 1 m/S 738 mmHg 61%
    09:00 +24°C° 0 mm 1 m/S 738 mmHg 55%
    10:00 +26°C° 0 mm 1 m/S 738 mmHg 49%
    11:00 +27°C° 0 mm 1 m/S 737 mmHg 47%
    12:00 +27°C° 0 mm 2 m/S 737 mmHg 46%
    13:00 +28°C° 0 mm 2 m/S 737 mmHg 46%
    14:00 +27°C° 0 mm 2 m/S 737 mmHg 51%
    15:00 +26°C° 0 mm 2 m/S 736 mmHg 55%
    16:00 +25°C° 0 mm 2 m/S 735 mmHg 60%
    17:00 +23°C° 0 mm 1 m/S 736 mmHg 67%
    18:00 +22°C° 0 mm 1 m/S 736 mmHg 75%
    19:00 +18°C° 0 mm 0 m/S 736 mmHg 82%
    20:00 +18°C° 0 mm 0 m/S 736 mmHg 82%
    21:00 +17°C° 0 mm 0 m/S 736 mmHg 83%
    22:00 +17°C° 0 mm 0 m/S 736 mmHg 83%
    23:00 +17°C° 0 mm 0 m/S 736 mmHg 83%

    Morgen, 16 Oktober, Mittwoch

    Zeit Temperatur Niederschläge Wind Luftdruck Luftfeuchtigkeit
    00:00 +17°C° 0 mm 0 m/S 736 mmHg 83%
    01:00 +16°C° 0 mm 0 m/S 736 mmHg 83%
    02:00 +16°C° 0 mm 0 m/S 736 mmHg 81%
    03:00 +18°C° 0 mm 1 m/S 736 mmHg 79%
    04:00 +18°C° 0 mm 1 m/S 736 mmHg 78%
    05:00 +18°C° 0 mm 1 m/S 736 mmHg 73%
    06:00 +19°C° 0 mm 1 m/S 736 mmHg 68%
    07:00 +20°C° 0 mm 1 m/S 736 mmHg 64%
    08:00 +22°C° 0 mm 1 m/S 736 mmHg 56%
    09:00 +24°C° 0 mm 1 m/S 736 mmHg 47%
    10:00 +26°C° 0 mm 1 m/S 736 mmHg 39%
    11:00 +26°C° 0 mm 1 m/S 736 mmHg 37%
    12:00 +27°C° 0 mm 2 m/S 736 mmHg 36%
    13:00 +27°C° 0 mm 2 m/S 736 mmHg 34%
    14:00 +26°C° 0 mm 2 m/S 736 mmHg 40%
    15:00 +25°C° 0 mm 2 m/S 735 mmHg 46%
    16:00 +25°C° 0 mm 2 m/S 735 mmHg 52%
    17:00 +23°C° 0 mm 2 m/S 735 mmHg 60%
    18:00 +21°C° 0 mm 1 m/S 735 mmHg 68%
    19:00 +18°C° 0 mm 0 m/S 736 mmHg 76%
    20:00 +17°C° 0 mm 0 m/S 736 mmHg 75%
    21:00 +19°C° 0 mm 1 m/S 736 mmHg 74%
    22:00 +19°C° 0 mm 1 m/S 736 mmHg 73%
    23:00 +19°C° 0 mm 1 m/S 736 mmHg 71%

    übermorgen, 17 Oktober, Donnerstag

    Zeit Temperatur Niederschläge Wind Luftdruck Luftfeuchtigkeit
    00:00 +19°C° 0 mm 1 m/S 736 mmHg 69%
    01:00 +19°C° 0 mm 1 m/S 736 mmHg 67%
    02:00 +18°C° 0 mm 1 m/S 736 mmHg 66%
    03:00 +18°C° 0 mm 1 m/S 736 mmHg 65%
    04:00 +18°C° 0 mm 1 m/S 736 mmHg 64%
    05:00 +19°C° 0 mm 1 m/S 736 mmHg 62%
    06:00 +19°C° 0 mm 1 m/S 736 mmHg 61%
    07:00 +19°C° 0 mm 1 m/S 736 mmHg 59%
    08:00 +21°C° 0 mm 1 m/S 736 mmHg 53%
    09:00 +23°C° 0 mm 1 m/S 737 mmHg 48%
    10:00 +25°C° 0 mm 1 m/S 737 mmHg 42%
    11:00 +26°C° 0 mm 1 m/S 737 mmHg 41%
    12:00 +26°C° 0 mm 2 m/S 737 mmHg 40%
    13:00 +27°C° 0 mm 2 m/S 736 mmHg 38%
    14:00 +26°C° 0 mm 2 m/S 736 mmHg 43%
    15:00 +25°C° 0 mm 2 m/S 736 mmHg 48%
    16:00 +24°C° 0 mm 2 m/S 736 mmHg 53%
    17:00 +22°C° 0 mm 1 m/S 736 mmHg 59%
    18:00 +21°C° 0 mm 1 m/S 736 mmHg 66%
    19:00 +17°C° 0 mm 0 m/S 736 mmHg 72%
    20:00 +17°C° 0 mm 0 m/S 737 mmHg 73%
    21:00 +17°C° 0 mm 0 m/S 737 mmHg 74%
    22:00 +16°C° 0 mm 0 m/S 737 mmHg 74%
    23:00 +16°C° 0 mm 0 m/S 737 mmHg 74%

    18 Oktober, Freitag

    Zeit Temperatur Niederschläge Wind Luftdruck Luftfeuchtigkeit
    00:00 +16°C° 0 mm 0 m/S 737 mmHg 75%
    01:00 +16°C° 0 mm 0 m/S 737 mmHg 75%
    02:00 +16°C° 0 mm 0 m/S 737 mmHg 75%
    03:00 +15°C° 0 mm 0 m/S 737 mmHg 75%
    04:00 +16°C° 0 mm 1 m/S 737 mmHg 76%
    05:00 +18°C° 0 mm 1 m/S 737 mmHg 73%
    06:00 +18°C° 0 mm 1 m/S 737 mmHg 71%
    07:00 +19°C° 0 mm 1 m/S 737 mmHg 69%
    08:00 +21°C° 0 mm 1 m/S 737 mmHg 62%
    09:00 +23°C° 0 mm 1 m/S 737 mmHg 55%
    10:00 +25°C° 0 mm 1 m/S 737 mmHg 48%
    11:00 +25°C° 0 mm 2 m/S 737 mmHg 48%
    12:00 +25°C° 0 mm 2 m/S 737 mmHg 47%
    13:00 +26°C° 0 mm 3 m/S 736 mmHg 46%
    14:00 +25°C° 0 mm 3 m/S 736 mmHg 51%
    15:00 +24°C° 0 mm 3 m/S 736 mmHg 57%
    16:00 +23°C° 0 mm 2 m/S 736 mmHg 62%
    17:00 +21°C° 0 mm 2 m/S 736 mmHg 70%
    18:00 +20°C° 0 mm 1 m/S 736 mmHg 77%
    19:00 +17°C° 0 mm 0 m/S 736 mmHg 85%
    20:00 +16°C° 0 mm 0 m/S 736 mmHg 85%
    21:00 +16°C° 0 mm 0 m/S 736 mmHg 86%
    22:00 +16°C° 0 mm 0 m/S 737 mmHg 87%
    23:00 +16°C° 0 mm 0 m/S 737 mmHg 86%

    19 Oktober, Samstag

    Zeit Temperatur Niederschläge Wind Luftdruck Luftfeuchtigkeit
    00:00 +15°C° 0 mm 0 m/S 736 mmHg 86%
    01:00 +15°C° 0 mm 0 m/S 736 mmHg 86%
    02:00 +16°C° 0 mm 1 m/S 736 mmHg 86%
    03:00 +16°C° 0 mm 1 m/S 736 mmHg 85%
    04:00 +16°C° 0 mm 1 m/S 736 mmHg 85%
    05:00 +16°C° 0 mm 1 m/S 736 mmHg 82%
    06:00 +18°C° 0 mm 1 m/S 736 mmHg 79%
    07:00 +16°C° 0 mm 0 m/S 736 mmHg 77%
    08:00 +20°C° 0 mm 1 m/S 737 mmHg 70%
    09:00 +22°C° 0 mm 1 m/S 737 mmHg 63%
    10:00 +24°C° 0 mm 1 m/S 737 mmHg 56%
    11:00 +24°C° 0 mm 2 m/S 737 mmHg 53%
    12:00 +25°C° 0 mm 2 m/S 737 mmHg 50%
    13:00 +26°C° 0 mm 2 m/S 736 mmHg 47%
    14:00 +25°C° 0 mm 2 m/S 736 mmHg 52%
    15:00 +24°C° 0 mm 2 m/S 736 mmHg 58%
    16:00 +21°C° 0 mm 2 m/S 736 mmHg 63%
    17:00 +20°C° 0 mm 2 m/S 736 mmHg 71%
    18:00 +19°C° 0 mm 1 m/S 736 mmHg 79%
    19:00 +16°C° 0 mm 0 m/S 737 mmHg 87%
    20:00 +16°C° 0 mm 0 m/S 737 mmHg 87%
    21:00 +16°C° 0 mm 1 m/S 737 mmHg 87%
    22:00 +16°C° 0 mm 1 m/S 737 mmHg 88%
    23:00 +16°C° 0 mm 1 m/S 737 mmHg 86%

    20 Oktober, Sonntag

    Zeit Temperatur Niederschläge Wind Luftdruck Luftfeuchtigkeit
    00:00 +16°C° 0 mm 1 m/S 737 mmHg 85%
    01:00 +16°C° 0 mm 1 m/S 737 mmHg 84%
    02:00 +15°C° 0 mm 1 m/S 737 mmHg 82%
    03:00 +15°C° 0 mm 1 m/S 737 mmHg 80%
    04:00 +15°C° 0 mm 1 m/S 737 mmHg 79%
    05:00 +16°C° 0 mm 1 m/S 737 mmHg 75%
    06:00 +16°C° 0 mm 1 m/S 738 mmHg 71%
    07:00 +18°C° 0 mm 1 m/S 738 mmHg 68%
    08:00 +20°C° 0 mm 1 m/S 738 mmHg 59%
    09:00 +22°C° 0 mm 1 m/S 738 mmHg 50%
    10:00 +24°C° 0 mm 1 m/S 739 mmHg 41%
    11:00 +25°C° 0 mm 1 m/S 738 mmHg 38%
    12:00 +25°C° 0 mm 2 m/S 738 mmHg 35%
    13:00 +26°C° 0 mm 2 m/S 738 mmHg 32%
    14:00 +25°C° 0 mm 2 m/S 738 mmHg 38%
    15:00 +24°C° 0 mm 2 m/S 738 mmHg 43%
    16:00 +23°C° 0 mm 2 m/S 737 mmHg 49%
    17:00 +22°C° 0 mm 1 m/S 738 mmHg 56%
    18:00 +20°C° 0 mm 1 m/S 738 mmHg 63%
    19:00 +16°C° 0 mm 0 m/S 738 mmHg 69%
    20:00 +16°C° 0 mm 0 m/S 738 mmHg 68%
    21:00 +18°C° 0 mm 1 m/S 739 mmHg 67%
    22:00 +18°C° 0 mm 1 m/S 739 mmHg 66%
    23:00 +18°C° 0 mm 1 m/S 739 mmHg 64%
    Mehr zeigen